Theta_e
322 315 315 315 300 298 292 296 298 304 303 306 309 306 303 304 304 300 311 316 322 323 329 333 337 339 338 336 335 333 331 331 331 332 331 329 328 328 326 326 326 326 325 325 325 324 324 323 321
316 314 310 306 295 291 292 298 297 302 306 307 307 307 305 301 309 307 309 320 321 323 327 331 337 338 338 336 334 331 330 329 330 331 332 328 328 326 326 326 325 325 324 324 324 323 322 321 321
316 314 303 300 295 292 293 298 302 304 307 307 304 304 304 302 307 307 313 317 318 325 329 333 337 338 337 334 332 331 330 330 330 329 330 327 327 326 325 325 324 324 324 323 323 322 321 320 320
307 307 304 295 294 297 298 300 304 302 305 306 303 299 302 308 309 311 315 315 321 326 330 334 337 338 336 334 332 330 330 329 329 328 327 325 326 324 324 323 323 323 322 322 321 320 319 319 318
305 301 295 293 294 295 302 307 306 304 303 303 302 298 301 308 312 313 315 317 322 324 327 331 336 336 335 332 331 329 328 328 327 327 326 325 324 324 323 322 322 321 320 320 319 318 317 317 317
299 298 291 290 294 297 303 307 306 305 305 303 300 298 300 309 310 312 314 315 323 323 324 326 329 332 333 332 330 329 328 326 325 326 324 323 323 322 321 321 320 320 319 318 318 316 315 314 314
296 294 290 291 295 298 304 307 304 304 303 303 303 297 300 306 310 311 313 314 321 321 319 319 327 328 328 329 328 328 327 326 325 324 323 322 321 320 319 318 318 318 318 316 315 314 312 311 311
300 296 292 292 293 297 306 305 307 305 301 304 304 297 296 306 311 311 312 312 315 317 317 317 323 325 324 324 325 325 326 325 323 322 320 319 320 318 317 317 316 316 315 314 312 309 308 307 306
302 293 292 295 296 299 306 304 305 305 302 301 302 301 305 311 311 308 308 308 310 313 313 315 318 321 321 322 319 322 322 321 320 317 317 315 311 310 310 314 314 314 313 311 308 306 304 303 302
297 292 294 299 300 304 308 305 304 302 300 299 300 306 310 310 309 307 306 306 307 307 310 314 316 316 317 319 316 313 315 310 309 309 309 307 306 307 308 310 311 309 307 305 303 301 301 295 288
298 293 297 300 306 307 307 305 303 301 298 300 299 303 306 307 306 306 305 305 306 307 309 313 316 314 315 317 314 310 308 307 307 306 306 304 305 303 301 300 298 296 299 292 292 291 290 289 288
293 298 300 302 305 306 305 305 301 301 301 304 304 306 306 305 305 305 305 305 306 306 307 312 314 313 311 316 312 310 308 306 305 305 305 302 301 301 300 297 295 293 291 289 289 289 289 288 289
295 296 299 300 305 304 306 303 302 302 301 303 305 306 305 305 305 306 306 306 307 306 306 309 312 311 312 311 310 312 308 307 305 305 305 303 301 299 298 296 294 290 290 289 289 289 289 288 289
298 298 298 300 302 304 303 302 303 303 301 302 304 304 305 305 305 304 304 305 306 308 306 306 311 312 313 311 309 311 308 305 304 304 304 303 301 298 296 294 292 289 290 290 289 289 289 289 289
298 293 295 297 302 301 303 299 300 303 302 301 302 303 304 305 306 305 305 305 305 307 307 305 308 311 312 314 310 309 307 305 300 302 303 301 300 298 295 293 290 289 290 290 290 290 290 289 290
294 291 288 296 300 302 301 293 302 301 300 299 300 301 304 305 306 306 304 305 303 303 305 304 304 304 306 309 309 308 306 303 299 299 300 300 298 297 295 293 291 290 290 290 290 289 289 289 289
290 283 288 292 298 300 298 295 301 302 301 299 298 300 302 304 305 304 304 304 302 301 301 300 297 297 299 303 307 306 305 303 300 297 297 298 298 296 293 292 291 291 290 290 290 290 289 288 288
284 285 287 289 294 297 295 295 299 300 299 300 299 299 300 302 304 306 304 304 304 301 300 297 295 294 295 298 302 304 303 302 302 300 296 298 297 297 294 293 293 292 290 290 290 290 290 289 289
290 288 288 290 295 296 294 295 297 300 297 298 299 298 300 301 304 306 304 303 303 300 298 296 294 294 296 296 299 300 301 300 301 301 300 298 298 297 295 294 294 292 291 291 291 291 290 289 289
290 286 287 291 292 294 292 293 297 297 298 300 301 299 300 300 299 303 302 302 302 301 299 296 295 295 296 299 299 299 299 299 301 302 301 301 299 298 297 295 294 293 292 291 291 291 290 290 291
289 287 288 288 289 289 287 287 290 294 297 299 301 303 301 301 300 302 301 301 301 301 299 297 295 295 298 298 300 298 299 297 299 300 300 301 300 299 298 296 296 294 293 292 291 291 291 290 290
286 291 292 290 287 283 288 279 285 290 293 296 300 299 301 301 301 302 302 301 300 302 301 299 296 294 297 299 301 301 299 299 297 300 299 300 301 300 299 298 296 295 294 293 292 293 291 291 289
288 293 292 290 286 284 281 279 283 287 289 292 297 299 301 300 302 301 302 302 302 303 301 299 297 295 296 299 301 299 293 294 293 295 297 298 299 300 299 298 296 295 295 294 293 293 292 292 290
294 292 290 288 286 279 283 280 280 285 289 290 293 294 298 295 298 302 302 303 302 302 301 300 297 296 295 297 298 297 297 291 292 292 294 294 296 297 298 298 297 296 295 294 294 293 292 292 291
291 288 279 276 277 277 280 279 285 288 289 288 289 290 291 292 292 293 299 300 300 300 301 301 299 297 296 295 295 296 294 292 292 292 293 293 293 294 297 297 296 297 297 296 295 293 293 292 291
287 288 279 273 274 276 279 277 284 289 289 289 290 290 291 292 293 293 294 297 299 301 301 301 300 299 297 295 294 293 293 294 293 293 292 294 294 294 295 297 296 297 297 297 296 295 294 292 291
286 285 288 280 272 276 279 281 287 288 287 288 289 290 290 292 293 294 294 295 295 300 300 301 300 299 298 296 294 294 294 294 294 294 294 293 293 294 294 295 295 295 297 297 296 296 295 293 292
289 290 283 280 270 271 276 278 281 285 286 287 288 288 290 292 293 293 294 295 295 296 300 300 300 299 298 297 296 296 295 295 294 294 294 294 294 294 294 293 294 294 295 295 295 296 294 293 293
283 285 285 284 280 276 275 278 285 286 288 286 287 289 289 290 291 293 294 294 295 296 297 298 298 298 297 297 296 295 295 295 295 295 294 294 294 294 293 293 293 293 293 293 293 294 293 292 293
283 285 288 281 278 277 279 280 286 287 289 288 289 290 289 289 290 292 294 294 294 294 295 295 296 297 297 297 296 296 296 295 295 294 294 294 294 294 294 293 292 292 292 292 292 291 292 291 291
Wind_Speed
9 11 1 4 4 4 4 8 3 3 4 3 2 6 10 4 4 3 3 9 13 10 7 6 8 19 20 20 19 18 17 16 15 17 17 15 17 16 17 17 17 17 18 18 18 18 19 17 17
4 6 4 1 4 2 6 7 2 3 6 8 9 5 5 3 4 5 6 11 13 10 7 4 9 18 20 20 19 18 17 15 16 17 16 14 17 15 16 16 16 17 17 17 18 17 17 18 16
3 5 2 3 3 5 5 3 5 4 7 5 6 7 4 3 4 6 6 10 10 10 7 5 18 18 19 19 19 19 17 15 15 15 17 15 15 16 16 16 16 16 17 17 17 17 17 16 15
2 5 3 1 7 7 7 4 4 2 5 7 7 8 4 4 10 7 8 10 12 10 7 9 16 19 20 18 20 19 18 16 16 15 15 16 15 16 16 15 16 16 16 16 16 16 16 15 14
3 2 1 2 8 6 1 8 6 4 4 3 4 6 4 3 9 9 9 8 12 9 8 7 15 19 19 20 19 18 17 15 15 15 14 16 15 16 15 15 15 15 15 15 15 15 15 13 13
3 3 0 4 8 6 4 7 6 6 5 4 7 6 3 7 8 8 7 9 12 10 8 6 8 16 18 17 17 18 18 16 15 16 14 16 15 15 15 14 14 14 15 15 15 14 14 13 12
4 3 4 4 6 9 5 4 3 6 7 4 10 5 4 5 8 7 8 9 11 10 8 5 7 11 14 18 16 17 15 16 15 14 14 15 14 15 14 14 13 14 14 14 14 14 13 13 12
4 4 3 4 7 9 3 2 2 7 2 1 6 8 7 11 10 8 7 8 9 8 8 7 6 10 9 10 15 17 18 16 15 14 12 13 13 14 12 12 13 13 13 13 13 13 13 13 12
3 2 3 7 6 5 4 4 2 2 8 4 5 5 7 18 14 7 6 5 7 7 7 7 6 8 10 9 7 13 16 15 14 12 10 8 5 6 7 9 12 12 12 12 12 12 11 11 10
5 4 9 4 6 5 3 4 7 4 5 4 4 8 19 19 16 13 10 8 7 8 7 7 8 8 9 7 7 5 8 5 6 5 4 3 5 5 7 9 10 11 11 11 10 7 9 7 3
6 7 5 5 5 6 3 8 4 8 3 8 11 15 18 15 12 14 10 7 7 7 6 8 10 6 8 8 5 3 3 4 5 6 5 4 5 4 4 3 3 3 6 2 4 4 3 5 3
4 8 7 7 5 1 2 4 4 6 5 3 20 23 18 16 16 15 14 12 12 8 8 10 10 7 6 7 5 5 6 4 4 4 6 5 3 4 4 3 4 4 3 4 3 2 3 3 4
6 7 7 7 5 4 2 6 6 7 4 5 18 19 19 16 13 12 10 9 12 10 8 10 11 8 6 6 5 6 6 5 5 5 5 5 4 4 4 4 4 4 3 3 4 4 3 3 3
6 10 11 7 6 4 4 4 4 5 8 12 17 17 16 18 17 11 13 15 15 14 11 9 11 11 8 7 6 5 6 6 5 5 5 6 5 5 5 5 4 4 4 3 4 4 4 3 3
7 4 6 6 6 4 5 6 9 5 10 14 12 12 12 14 15 17 15 15 15 14 14 11 12 12 10 10 7 4 6 6 5 5 6 7 5 6 6 5 5 4 4 5 3 3 2 2 2
5 2 2 5 8 4 9 10 8 10 13 12 12 11 13 14 17 14 11 14 12 13 15 11 9 10 9 7 6 4 6 5 5 5 5 7 6 7 5 5 4 5 4 4 3 3 2 3 3
3 3 7 6 6 6 7 6 7 14 15 12 10 12 13 12 12 10 13 14 14 14 14 14 10 9 9 7 5 5 7 5 5 5 5 7 6 6 6 5 5 5 4 4 3 3 3 3 3
5 5 5 7 7 8 7 8 7 4 7 11 11 11 13 14 18 14 13 14 15 14 13 12 9 9 9 6 5 3 5 5 5 5 5 8 6 7 6 5 6 5 4 4 3 4 3 3 3
5 6 12 5 4 7 10 6 11 9 5 8 9 11 14 16 14 14 13 13 14 12 14 14 12 9 9 5 6 4 6 4 3 4 7 8 7 7 7 5 5 5 6 6 5 3 4 3 2
11 6 6 2 2 5 3 10 11 7 10 13 15 11 16 12 11 14 14 14 16 16 15 15 15 11 10 8 4 3 4 3 3 4 6 8 8 8 7 7 6 6 4 6 6 5 2 3 3
15 14 4 4 2 2 2 7 7 8 10 9 11 11 13 18 17 17 17 18 15 17 17 17 16 15 12 7 5 3 2 2 3 4 4 6 8 8 8 8 6 6 5 5 5 5 6 4 3
16 8 6 6 4 4 6 7 6 7 13 11 17 12 12 16 17 19 19 17 16 18 16 15 15 15 12 11 10 12 8 10 5 6 3 5 7 8 8 8 7 7 5 6 6 6 5 4 5
8 8 8 5 3 1 2 0 8 6 8 11 16 14 14 12 19 20 21 22 21 17 15 14 14 14 14 14 13 10 6 4 3 3 7 7 6 7 7 8 7 7 5 6 7 5 6 5 4
6 6 3 2 3 5 7 7 6 6 8 5 5 9 10 8 9 15 19 17 16 13 14 14 15 15 13 14 13 14 14 7 5 5 5 4 4 5 7 7 8 7 7 7 7 7 7 7 5
6 9 1 2 2 9 2 5 13 7 6 6 7 8 7 7 6 7 10 12 12 15 16 14 16 15 14 16 13 14 10 9 9 7 6 6 4 4 8 7 7 7 8 8 6 7 7 6 6
9 12 6 9 6 5 2 8 8 8 5 3 4 7 6 6 5 5 5 7 10 14 14 15 14 13 14 14 12 8 9 8 6 7 5 6 6 5 6 8 7 8 8 8 7 6 7 6 7
7 11 6 5 3 4 6 5 8 5 5 5 7 5 5 6 5 4 5 3 6 8 10 14 13 10 13 14 10 10 9 9 8 8 6 6 6 5 7 7 8 8 8 9 8 8 9 7 7
8 8 8 2 5 4 4 4 7 6 8 4 6 7 6 4 6 3 3 4 3 4 6 8 9 10 10 11 11 10 11 8 7 6 8 7 6 7 7 7 8 8 8 8 8 8 6 8 7
2 8 6 5 5 6 2 6 6 6 11 12 9 7 7 7 6 4 3 3 5 5 6 6 7 8 7 8 8 8 7 7 7 7 7 7 6 7 7 7 7 8 7 7 7 8 6 8 8
2 5 19 6 10 2 3 6 3 7 9 9 8 7 6 7 6 6 5 5 5 5 5 6 5 6 6 6 6 7 6 6 6 6 6 6 6 6 6 6 6 6 7 6 7 8 7 8 9
Wind_Direction
330 312 328 7 30 53 262 256 210 160 68 99 46 80 115 58 48 150 243 118 126 122 113 103 113 128 127 118 115 110 107 109 106 100 96 97 99 90 94 89 87 85 84 83 83 81 82 83 79
315 311 25 35 111 335 282 260 328 184 143 119 77 121 52 84 85 144 108 130 126 132 119 117 139 134 123 120 114 114 111 114 111 102 105 104 101 97 97 91 89 88 86 86 84 84 83 80 73
277 187 68 154 173 206 245 354 144 115 148 126 105 56 77 108 98 139 146 121 109 109 108 111 131 130 124 121 118 117 117 110 102 104 98 106 103 100 96 95 92 90 89 88 87 86 85 81 81
334 5 338 131 258 258 261 113 138 89 10 43 108 70 61 304 148 162 136 129 109 112 99 123 136 130 127 124 124 121 120 115 115 108 108 106 105 101 97 97 94 92 90 90 89 86 85 81 80
34 63 265 255 252 259 256 167 161 126 145 104 96 145 73 25 127 123 129 130 122 111 94 106 135 132 126 126 124 124 120 118 116 113 115 110 110 106 103 102 100 97 95 93 91 89 85 79 75
351 93 338 241 266 278 221 155 160 129 150 135 80 102 146 147 120 151 139 122 129 120 110 102 117 131 127 125 125 126 121 127 124 121 123 119 114 110 109 105 105 103 101 98 95 92 88 82 76
151 91 227 276 283 302 230 138 169 153 134 158 147 95 156 158 161 151 145 120 131 128 123 122 128 128 124 123 125 123 123 125 122 115 122 119 115 115 113 111 110 107 104 102 98 95 91 86 77
126 115 270 262 278 267 223 148 213 129 131 127 133 165 185 188 162 152 142 128 133 135 138 136 126 128 122 126 127 122 121 111 112 108 116 131 111 116 114 109 115 112 111 108 105 102 97 90 79
64 66 221 241 245 281 133 156 47 4 113 71 19 142 166 153 148 133 136 123 133 143 141 137 127 129 116 121 116 120 121 120 111 132 138 124 107 98 108 118 119 117 116 115 113 107 99 91 82
135 167 225 218 298 179 276 232 159 130 115 80 59 74 128 148 157 160 160 156 153 151 157 135 128 134 125 134 130 124 126 120 124 160 157 93 127 118 107 103 118 128 128 126 114 104 89 93 83
197 213 253 277 314 341 103 237 179 129 218 185 167 150 150 158 164 165 168 172 166 161 164 145 141 152 145 143 144 149 132 127 141 182 149 154 126 120 119 113 114 128 120 81 80 81 75 89 95
242 229 228 265 230 26 260 156 185 176 200 239 161 162 155 169 175 174 174 176 172 167 168 152 147 157 164 146 162 163 146 146 150 179 153 153 134 143 150 148 163 162 166 145 128 114 118 98 100
232 240 261 261 204 206 300 275 205 219 156 103 143 157 167 170 180 178 177 183 173 174 175 160 155 163 163 155 178 163 151 155 167 165 168 146 156 166 159 168 165 163 158 150 156 152 147 138 130
235 224 248 253 207 205 183 268 164 242 139 128 153 169 175 176 181 178 183 185 181 177 181 157 163 164 170 174 189 155 154 162 162 168 175 180 171 162 162 163 165 171 171 172 169 175 173 180 170
224 291 291 255 196 225 149 287 228 178 160 154 166 171 181 185 180 194 192 189 179 179 176 169 166 167 175 184 190 178 164 155 157 173 181 179 177 172 158 164 171 185 184 168 159 175 166 181 217
186 168 239 259 179 206 127 256 245 166 159 177 175 179 183 195 196 191 181 179 173 167 178 176 164 169 171 183 179 181 152 157 164 168 179 184 172 166 165 166 186 185 169 165 167 182 222 231 226
239 191 208 281 218 143 167 246 243 183 176 185 189 188 188 189 196 190 181 175 174 172 172 179 168 175 173 187 182 176 168 162 170 163 177 187 182 177 164 177 191 179 175 176 183 207 187 218 248
192 202 236 214 225 167 188 241 275 136 177 193 194 195 188 188 202 191 182 172 174 173 174 175 176 174 172 175 172 175 166 175 164 176 181 184 185 183 179 184 189 178 172 194 196 200 217 202 226
196 195 215 231 240 152 211 224 240 231 221 231 216 196 194 196 192 183 180 170 172 171 169 176 174 178 174 174 184 180 180 174 182 180 187 184 188 186 183 191 190 181 183 195 199 190 201 257 232
249 242 254 311 237 142 252 247 243 225 220 212 215 194 198 195 180 178 175 175 181 180 176 177 183 177 184 183 184 162 148 184 178 183 197 186 188 188 185 187 196 189 184 198 203 185 184 228 199
223 228 220 240 204 329 61 283 246 242 229 212 218 216 191 192 185 184 180 187 182 181 182 183 182 179 187 169 141 105 122 92 180 203 201 201 183 191 193 191 188 195 191 198 197 186 184 203 247
224 174 192 169 149 225 165 273 274 246 237 205 211 205 201 191 188 185 184 187 184 191 185 179 181 178 182 169 181 190 197 201 198 196 182 196 192 195 194 195 192 195 192 201 204 199 190 163 209
229 173 183 170 188 63 241 22 267 263 260 223 209 206 209 191 184 188 187 189 192 184 180 178 177 180 185 184 190 188 191 193 167 171 183 202 206 202 196 194 194 199 196 206 200 196 200 197 184
173 105 78 89 117 261 200 167 255 218 230 251 191 199 202 175 175 194 193 186 185 179 175 176 177 183 179 185 187 190 201 177 175 193 199 201 204 211 209 198 203 197 201 204 208 208 206 205 205
158 138 54 23 249 228 162 203 246 248 243 214 161 144 134 127 118 136 171 176 174 179 179 180 180 185 183 189 188 195 189 183 196 194 197 183 198 211 218 199 198 208 208 206 200 208 211 203 207
195 170 161 179 206 196 160 229 246 233 174 157 135 143 131 115 108 133 150 167 174 183 180 183 182 181 181 184 190 185 174 194 202 199 187 205 206 206 188 209 207 211 206 211 207 212 218 201 215
192 202 177 101 9 96 216 281 294 182 206 184 165 153 147 125 119 128 112 130 160 168 178 178 176 175 175 181 175 186 183 188 203 205 196 204 202 210 208 207 214 216 213 212 207 220 224 215 217
203 167 212 354 146 210 260 249 239 225 229 203 182 161 151 132 115 104 93 105 106 119 144 150 161 170 167 171 180 190 195 192 194 197 206 203 206 208 207 210 212 216 218 214 211 228 225 221 231
148 188 204 169 167 181 168 250 211 228 195 180 181 171 151 146 143 141 119 95 96 98 109 126 145 144 156 166 175 174 188 193 199 207 209 207 204 206 214 213 214 218 219 213 218 232 227 224 238
148 225 201 193 226 245 165 254 315 244 161 142 151 149 140 136 139 137 127 112 98 109 122 133 134 149 165 166 165 178 184 193 201 210 215 209 220 219 221 218 220 222 221 213 214 224 225 221 233